EW5297 Weather Reports


time (UTC)temp
C
wind
direction
speed
KPH
gust
KPH
rain 1hr
cm
rain 24hr
cm
rain mn
cm
humidity
%
barometer
mb
20260509064814 16 349 1.6 1.6 0.00 0.00 0.00 78
20260509063335 17 349 1.6 3.2 0.00 0.00 0.00 74
20260509061833 18 161 0.0 3.2 0.00 0.00 0.00 71
20260509060312 19 161 0.0 0.0 0.00 0.00 0.00 68
20260509054830 19 161 0.0 3.2 0.00 0.00 0.00 63
20260509053326 20 165 0.0 3.2 0.00 0.00 0.00 62
20260509051828 20 165 0.0 4.8 0.00 0.00 0.00 61
20260509050346 20 145 3.2 6.4 0.00 0.00 0.00 60
20260509044823 20 159 1.6 4.8 0.00 0.00 0.00 59
20260509043325 20 146 3.2 6.4 0.00 0.00 0.00 58
20260509041823 20 149 1.6 3.2 0.00 0.00 0.00 59
20260509040325 20 148 3.2 8.0 0.00 0.00 0.00 59
20260509034843 21 153 0.0 3.2 0.00 0.00 0.00 58
20260509033319 21 189 3.2 6.4 0.00 0.00 0.00 55
20260509031821 21 141 3.2 6.4 0.00 0.00 0.00 58
20260509030320 21 148 1.6 8.0 0.00 0.00 0.00 55
20260509024822 20 133 3.2 11.3 0.00 0.00 0.00 55
20260509023322 20 141 1.6 8.0 0.00 0.00 0.00 55
20260509021819 20 136 3.2 12.9 0.00 0.00 0.00 53
20260509020322 20 132 1.6 8.0 0.00 0.00 0.00 53 1020.1
20260509014821 20 36 3.2 6.4 0.00 0.00 0.00 54
20260509013341 20 138 1.6 14.5 0.00 0.00 0.00 57
20260509011843 19 132 3.2 12.9 0.00 0.00 0.00 56
20260509010320 19 144 4.8 14.5 0.00 0.00 0.00 57 792.8
20260509004843 19 113 0.0 12.9 0.00 0.00 0.00 60 695.2
20260509003320 19 153 3.2 6.4 0.00 0.00 0.00 60 397.9
20260509001817 18 9 0.0 12.9 0.00 0.00 0.00 62 563.0
20260509000318 17 134 0.0 4.8 0.00 0.00 0.00 67
20260508234813 17 141 1.6 16.1 0.00 0.00 0.00 68
20260508233315 15 140 1.6 6.4 0.00 0.00 0.00 80
20260508231814 14 88 0.0 3.2 0.00 0.00 0.00 90
20260508230330 13 53 0.0 3.2 0.00 0.00 0.00 92
20260508224811 12 57 1.6 3.2 0.00 0.00 0.00 93
20260508223331 11 327 0.0 3.2 0.00 0.00 0.00 93
20260508221850 10 323 0.0 1.6 0.00 0.00 0.00 93
20260508220314 10 344 1.6 3.2 0.00 0.00 0.00 93
20260508214816 8 329 1.6 4.8 0.00 0.00 0.00 93
20260508213319 8 327 1.6 3.2 0.00 0.00 0.00 93
20260508211817 7 318 1.6 3.2 0.00 0.00 0.00 93
20260508204848 7 327 1.6 4.8 0.00 0.00 0.00 93
20260508203324 7 329 3.2 4.8 0.00 0.00 0.00 93
20260508201840 7 329 1.6 4.8 0.00 0.00 0.00 93
20260508200320 7 326 1.6 3.2 0.00 0.00 0.00 93
20260508194838 7 326 0.0 3.2 0.00 0.00 0.00 93
20260508193319 7 327 0.0 0.0 0.00 0.00 0.00 92
20260508191838 7 327 0.0 3.2 0.00 0.00 0.00 92
20260508190314 7 327 1.6 3.2 0.00 0.00 0.00 92
20260508183320 7 333 0.0 0.0 0.00 0.00 0.00 93
20260508181838 7 333 0.0 0.0 0.00 0.00 0.00 92
20260508180318 7 333 0.0 4.8 0.00 0.00 0.00 93
20260508174816 7 319 3.2 3.2 0.00 0.00 0.00 92
20260508173313 7 317 1.6 3.2 0.00 0.00 0.00 92
20260508171816 7 325 1.6 3.2 0.00 0.00 0.00 92
20260508170313 7 325 0.0 4.8 0.00 0.00 0.00 92
20260508164815 7 322 0.0 3.2 0.00 0.00 0.00 92
20260508163312 7 322 1.6 3.2 0.00 0.00 0.00 92
20260508161828 7 319 0.0 3.2 0.00 0.00 0.00 92
20260508160330 7 330 1.6 3.2 0.00 0.00 0.00 92
20260508154826 7 315 0.0 3.2 0.00 0.00 0.00 92
20260508153322 7 322 1.6 3.2 0.00 0.00 0.00 92
20260508151843 7 322 0.0 3.2 0.00 0.00 0.00 92
20260508150321 7 326 1.6 3.2 0.00 0.00 0.00 92
20260508144823 7 326 1.6 3.2 0.00 0.00 0.00 92
20260508143322 7 319 1.6 3.2 0.00 0.00 0.00 92
20260508141823 7 311 1.6 3.2 0.00 0.00 0.00 92
20260508140346 7 325 0.0 3.2 0.00 0.00 0.00 91
20260508134823 7 340 0.0 3.2 0.00 0.00 0.00 91
20260508133321 7 340 0.0 3.2 0.00 0.00 0.00 91
20260508131822 7 340 1.6 4.8 0.00 0.00 0.00 91
20260508130340 7 331 0.0 3.2 0.00 0.00 0.00 91
20260508124819 7 331 1.6 3.2 0.00 0.00 0.00 91
20260508123314 7 331 0.0 3.2 0.00 0.00 0.00 91
20260508121811 7 331 0.0 0.0 0.00 0.00 0.00 91
20260508120314 8 331 0.0 0.0 0.00 0.00 0.00 91
20260508114829 8 331 0.0 0.0 0.00 0.00 0.00 91
20260508113346 8 331 0.0 0.0 0.00 0.00 0.00 91
20260508111827 8 331 0.0 0.0 0.00 0.00 0.00 90
20260508110322 8 331 0.0 0.0 0.00 0.00 0.00 90
20260508104824 8 331 0.0 0.0 0.00 0.00 0.00 90
20260508103321 8 331 0.0 0.0 0.00 0.00 0.00 90
20260508101820 8 331 0.0 0.0 0.00 0.00 0.00 90
20260508100322 8 331 0.0 0.0 0.00 0.00 0.00 90
20260508094840 8 331 0.0 0.0 0.00 0.00 0.00 89
20260508093338 9 331 0.0 0.0 0.00 0.00 0.00 89
20260508091816 9 331 1.6 3.2 0.00 0.00 0.00 89
20260508090335 9 331 1.6 3.2 0.00 0.00 0.00 88
20260508084816 10 331 0.0 0.0 0.00 0.00 0.00 88
20260508083334 10 331 0.0 0.0 0.00 0.00 0.00 88
20260508081811 10 331 0.0 0.0 0.00 0.00 0.00 87
20260508080332 10 331 0.0 1.6 0.00 0.00 0.00 86
20260508074830 10 331 1.6 3.2 0.00 0.00 0.00 85
20260508073310 11 324 1.6 3.2 0.00 0.00 0.00 84
20260508071848 11 324 1.6 1.6 0.00 0.00 0.00 82
20260508070325 12 322 1.6 3.2 0.00 0.00 0.00 81